Location: Alberta Star Party
(51.6612°N, 112.9089°W)
Time: 10:13:36
(UTC-06:00)

Amateur Radio Satellites - All Passes

Search period start: 20 September 2017 09:43
Search period end: 21 September 2017 09:43
Location: Alberta Star Party, 51.6612°N, 112.9089°W

Satellite Date Start Highest point End Downlink Frequencies (MHz)
Time Altitude Azimuth
XW-2A 20 Sep 09:49:50 09:53:12 51° 288° (WNW) 09:56:32 145.665 - 145.685
AO-73 20 Sep 09:57:30 10:02:03 62° 100° (E) 10:06:35 145.935
ZACube-1 20 Sep 09:57:56 10:02:31 69° 102° (ESE) 10:07:06 437.345
Oscar 11 20 Sep 10:01:19 10:05:34 48° 99° (E) 10:09:46 .
HO-68 20 Sep 10:07:40 10:14:35 52° 298° (WNW) 10:21:28 435.675
SEEDS 20 Sep 10:13:38 10:17:17 29° 295° (WNW) 10:20:55 437.485
UNISAT 6 20 Sep 10:15:57 10:20:16 74° 73° (ENE) 10:24:44 437.425
CUBEBUG 2 20 Sep 10:23:07 10:27:10 31° 296° (WNW) 10:31:17 437.445
AO-7 20 Sep 10:30:29 10:31:16 10° 354° (N) 10:32:03 .
CUTE 1.7 + AOD 2 20 Sep 10:35:05 10:37:29 15° 303° (WNW) 10:39:52 437.475
QB50P2 20 Sep 10:36:10 10:37:14 11° 52° (NE) 10:38:19 145.880/145.840
UWE-3 20 Sep 10:38:05 10:42:16 34° 294° (WNW) 10:46:29 435.000/436.395/437.385
TIGRISAT 20 Sep 10:40:48 10:45:07 71° 257° (WSW) 10:49:35 435.000
AAUSAT CUBESAT 2 20 Sep 10:48:08 10:51:38 27° 296° (WNW) 10:55:06 437.432
PRISM 20 Sep 10:48:44 10:52:51 87° 256° (WSW) 10:56:58 437.425
RS-15 20 Sep 10:57:04 11:08:50 46° 349° (N) 11:20:19 29.354- 29.394
FO-29 20 Sep 11:00:22 11:04:57 25° 268° (W) 11:09:17 435.910
O/OREOS (USA 219) 20 Sep 11:02:56 11:04:34 12° 31° (NNE) 11:06:12 437.305
EO-88 20 Sep 11:09:25 11:12:49 34° 97° (E) 11:16:11 145.990 - 145.960
NANOSAT C BR1 20 Sep 11:13:23 11:16:19 19° 59° (ENE) 11:19:15 145.865
DELFI C3 20 Sep 11:16:21 11:20:17 71° 103° (ESE) 11:24:11 145.870
M-CUBED/EXP-1 PRIME 20 Sep 11:16:56 11:19:36 17° 53° (NE) 11:22:11 437.505
AIST 2D 20 Sep 11:29:35 11:33:02 52° 72° (ENE) 11:36:31 435.315
Max Valier Satellite 20 Sep 11:33:31 11:37:18 85° 107° (ESE) 11:41:03 145.860
AO-73 20 Sep 11:34:27 11:37:54 22° 300° (WNW) 11:41:21 145.935
ZACube-1 20 Sep 11:35:04 11:38:21 20° 301° (WNW) 11:41:38 437.345
Oscar 11 20 Sep 11:37:57 11:41:28 24° 298° (WNW) 11:44:57 .
DUCHIFAT 1 20 Sep 11:43:07 11:46:45 29° 64° (ENE) 11:50:24 145.980
POLYITAN 1 20 Sep 11:50:39 11:54:37 41° 68° (ENE) 11:58:38 437.675
YUBILEINY 20 Sep 11:54:24 12:00:11 20° 73° (ENE) 12:05:59 435.215
UNISAT 6 20 Sep 11:55:00 11:57:33 15° 273° (W) 12:00:09 437.425
EO-79 20 Sep 11:55:59 12:00:00 46° 69° (ENE) 12:04:04 145.935-145.965
HO-68 20 Sep 11:56:44 12:00:48 16° 321° (NW) 12:04:53 435.675
Oscar 19 20 Sep 12:02:34 12:05:02 14° 49° (NE) 12:07:29 437.125/150
QB50P2 20 Sep 12:08:03 12:12:12 66° 72° (ENE) 12:16:26 145.880/145.840
AO-7 20 Sep 12:16:54 12:20:30 14° 22° (NNE) 12:24:06 .
LO-87 20 Sep 12:18:05 12:21:19 30° 96° (E) 12:24:32 145.935 - 145.965
PRISM 20 Sep 12:27:40 12:28:46 11° 273° (W) 12:29:52 437.425
BUGSAT 1 20 Sep 12:33:37 12:37:03 28° 64° (ENE) 12:40:32 437.445
O/OREOS (USA 219) 20 Sep 12:40:49 12:45:14 43° 54° (NE) 12:49:37 437.305
EO-88 20 Sep 12:43:21 12:46:21 24° 296° (WNW) 12:49:19 145.990 - 145.960
NANOSAT C BR1 20 Sep 12:47:28 12:51:36 63° 257° (WSW) 12:55:49 145.865
SPROUT 20 Sep 12:48:55 12:51:09 14° 87° (E) 12:53:23 437.525
M-CUBED/EXP-1 PRIME 20 Sep 12:49:19 12:53:38 78° 251° (WSW) 12:57:40 437.505
DELFI C3 20 Sep 12:52:17 12:54:34 15° 301° (WNW) 12:56:50 145.870
Gurwin Techsat 1B 20 Sep 12:55:04 12:59:11 23° 56° (ENE) 13:03:17 435.225
AIST 2D 20 Sep 13:04:26 13:06:32 15° 270° (W) 13:08:38 435.315
Max Valier Satellite 20 Sep 13:08:58 13:10:33 12° 303° (WNW) 13:12:09 145.860
ESTCUBE 1 20 Sep 13:10:45 13:15:16 71° 102° (ESE) 13:19:45 437.505/2401.250
RS-15 20 Sep 13:12:29 13:24:26 52° 22° (NNE) 13:35:49 29.354- 29.394
DUCHIFAT 1 20 Sep 13:18:29 13:22:20 35° 263° (W) 13:26:14 145.980
POLYITAN 1 20 Sep 13:27:04 13:30:33 25° 267° (W) 13:34:05 437.675
EO-79 20 Sep 13:32:41 13:36:00 22° 268° (W) 13:39:21 145.935-145.965
Oscar 19 20 Sep 13:38:15 13:43:23 62° 70° (ENE) 13:48:32 437.125/150
QB50P2 20 Sep 13:45:48 13:48:28 16° 271° (W) 13:51:08 145.880/145.840
YUBILEINY 20 Sep 13:46:52 13:55:33 78° 96° (E) 14:04:15 435.215
LO-87 20 Sep 13:51:39 13:54:40 25° 294° (WNW) 13:57:40 145.935 - 145.965
VELOX 1 20 Sep 13:56:01 14:00:14 42° 99° (E) 14:04:24 145.980
AO-7 20 Sep 14:03:43 14:10:49 33° 47° (NE) 14:17:54 .
BUGSAT 1 20 Sep 14:08:37 14:12:19 35° 263° (W) 14:16:04 437.445
O/OREOS (USA 219) 20 Sep 14:20:30 14:24:31 30° 254° (WSW) 14:28:31 437.305
SPROUT 20 Sep 14:23:18 14:27:37 79° 285° (WNW) 14:31:54 437.525
50 SAT 20 Sep 14:27:19 14:30:16 29° 97° (E) 14:33:12 437.505
M-CUBED/EXP-1 PRIME 20 Sep 14:27:41 14:28:35 11° 266° (W) 14:29:28 437.505
Gurwin Techsat 1B 20 Sep 14:33:20 14:38:39 72° 256° (WSW) 14:44:00 435.225
ITAMSAT 1 20 Sep 14:36:48 14:40:37 21° 55° (NE) 14:44:28 435.822/435.867
ESTCUBE 1 20 Sep 14:48:28 14:51:35 19° 302° (WNW) 14:54:42 437.505/2401.250
DX 1 20 Sep 15:16:29 15:20:51 76° 104° (ESE) 15:25:10 434.975-435.025
UKube-1 20 Sep 15:17:12 15:21:25 52° 101° (E) 15:25:37 .
Oscar 19 20 Sep 15:18:59 15:23:07 23° 269° (W) 15:27:17 437.125/150
RS-15 20 Sep 15:25:58 15:38:08 83° 233° (SW) 15:49:39 29.354- 29.394
NO-84 20 Sep 15:32:39 15:35:53 30° 143° (SE) 15:38:55 435.350 FM
VELOX 1 20 Sep 15:32:48 15:36:31 27° 298° (WNW) 15:40:12 145.980
PCSat 20 Sep 15:39:40 15:43:43 22° 109° (ESE) 15:47:48 145.827
ITUPSAT 1 20 Sep 15:43:48 15:46:48 16° 88° (E) 15:49:48 437.325
YUBILEINY 20 Sep 15:45:47 15:53:20 32° 301° (WNW) 16:00:54 435.215
MOZHAYETS 4 20 Sep 15:48:22 15:51:33 18° 89° (E) 15:54:43
AO-7 20 Sep 15:54:30 16:02:52 83° 250° (WSW) 16:11:16 .
50 SAT 20 Sep 16:00:01 16:02:40 22° 295° (WNW) 16:05:20 437.505
SPROUT 20 Sep 16:00:53 16:02:49 13° 306° (NW) 16:04:44 437.525
SO-50 20 Sep 16:12:45 16:17:07 52° 125° (SE) 16:21:30 436.795
ITAMSAT 1 20 Sep 16:14:24 16:19:34 77° 255° (WSW) 16:24:47 435.822/435.867
DOVE 4 20 Sep 16:16:46 16:19:04 14° 57° (ENE) 16:21:19 437.250
Gurwin Techsat 1B 20 Sep 16:17:25 16:19:34 12° 276° (W) 16:21:44 435.225
BEESAT 20 Sep 16:22:02 16:26:25 34° 96° (E) 16:30:46 436.000
DX 1 20 Sep 16:53:43 16:56:31 17° 303° (WNW) 16:59:19 434.975-435.025
UKube-1 20 Sep 16:53:48 16:57:09 23° 300° (WNW) 17:00:30 .
XW-2B 20 Sep 17:09:12 17:10:47 12° 57° (ENE) 17:12:21 145.730 - 145.750
NO-84 20 Sep 17:09:38 17:13:08 71° 340° (NNW) 17:16:21 435.350 FM
HO-68 20 Sep 17:10:19 17:14:33 17° 40° (NE) 17:18:47 435.675
XW-2F 20 Sep 17:12:00 17:13:39 12° 57° (ENE) 17:15:17 145.980 - 146.000
ITUPSAT 1 20 Sep 17:20:23 17:25:14 80° 287° (WNW) 17:30:03 437.325
PCSat 20 Sep 17:21:07 17:26:33 79° 308° (NW) 17:32:02 145.827
MOZHAYETS 4 20 Sep 17:24:32 17:29:11 69° 288° (WNW) 17:33:48
XW-2C 20 Sep 17:29:01 17:31:43 18° 61° (ENE) 17:34:26 145.795 - 145.815
LilacSat-2 20 Sep 17:36:36 17:39:41 23° 63° (ENE) 17:42:46 437.200
CUTE-I 20 Sep 17:38:10 17:42:39 29° 60° (ENE) 17:47:10 437.470
RS-15 20 Sep 17:39:26 17:48:51 29° 258° (WSW) 17:57:56 29.354- 29.394
CUBESAT XI-V 20 Sep 17:41:28 17:45:59 46° 98° (E) 17:50:26 437.345
NUDT-PHONESAT 20 Sep 17:45:43 17:48:27 19° 62° (ENE) 17:51:13 437.300
AO-7 20 Sep 17:50:42 17:56:53 22° 272° (W) 18:03:06 .
DOVE 4 20 Sep 17:51:46 17:56:13 89° 255° (WSW) 18:00:30 437.250
SO-50 20 Sep 17:53:36 17:57:45 35° 326° (NW) 18:01:57 436.795
ITAMSAT 1 20 Sep 17:57:37 17:59:55 13° 275° (W) 18:02:16 435.822/435.867
BEESAT 20 Sep 17:59:48 18:04:13 38° 295° (WNW) 18:08:39 436.000
KAITUO 1B 20 Sep 18:07:47 18:11:11 32° 67° (ENE) 18:14:37 145.475/437.950
KKS-1 20 Sep 18:09:59 18:14:00 33° 96° (E) 18:18:01 437.445
CUBEBUG 2 20 Sep 18:17:14 18:17:54 10° 51° (NE) 18:18:36 437.445
CUTE 1.7 + AOD 2 20 Sep 18:21:26 18:24:14 17° 59° (ENE) 18:27:05 437.475
XW-2D 20 Sep 18:28:16 18:32:06 70° 75° (ENE) 18:35:58 145.860 - 145.880
XW-2B 20 Sep 18:40:30 18:44:21 90° 74° (ENE) 18:48:14 145.730 - 145.750
XW-2F 20 Sep 18:43:19 18:47:10 88° 266° (W) 18:51:02 145.980 - 146.000
STARS 20 Sep 18:44:12 18:48:08 31° 96° (E) 18:52:04 437.465
NO-84 20 Sep 18:47:36 18:50:47 43° 1° (N) 18:53:44 435.350 FM
HO-68 20 Sep 18:53:56 19:00:50 55° 63° (ENE) 19:07:47 435.675
XW-2A 20 Sep 18:55:01 18:56:39 13° 59° (ENE) 18:58:18 145.665 - 145.685
ITUPSAT 1 20 Sep 18:59:34 19:02:20 15° 307° (NW) 19:05:05 437.325
XW-2C 20 Sep 19:01:47 19:05:34 53° 260° (W) 19:09:22 145.795 - 145.815
MOZHAYETS 4 20 Sep 19:03:30 19:05:31 13° 308° (NW) 19:07:31
PCSat 20 Sep 19:06:18 19:10:47 25° 332° (NNW) 19:15:17 145.827
LilacSat-2 20 Sep 19:10:04 19:13:45 41° 262° (W) 19:17:28 437.200
CUTE-I 20 Sep 19:17:14 19:22:27 55° 259° (W) 19:27:41 437.470
NUDT-PHONESAT 20 Sep 19:18:25 19:22:03 46° 261° (W) 19:25:42 437.300
CUBESAT XI-V 20 Sep 19:19:14 19:23:09 27° 298° (WNW) 19:27:02 437.345
AO-73 20 Sep 19:24:11 19:26:34 15° 55° (NE) 19:29:00 145.935
ZACube-1 20 Sep 19:24:36 19:27:15 16° 56° (NE) 19:29:56 437.345
Oscar 11 20 Sep 19:28:10 19:29:49 12° 53° (NE) 19:31:29 .
STRAND 1 20 Sep 19:28:20 19:29:13 10° 83° (E) 19:30:07 437.568
DOVE 4 20 Sep 19:32:57 19:34:32 12° 273° (W) 19:36:07 437.250
SEEDS 20 Sep 19:34:07 19:38:12 48° 70° (ENE) 19:42:19 437.485
SO-50 20 Sep 19:36:26 19:39:26 17° 350° (N) 19:42:29 436.795
KAITUO 1B 20 Sep 19:41:57 19:45:12 26° 266° (W) 19:48:29 145.475/437.950
KKS-1 20 Sep 19:46:33 19:50:35 35° 295° (WNW) 19:54:36 437.445
CUBEBUG 2 20 Sep 19:49:25 19:53:36 60° 72° (ENE) 19:57:57 437.445
CUTE 1.7 + AOD 2 20 Sep 19:55:19 19:59:36 71° 258° (WSW) 20:03:55 437.475
UWE-3 20 Sep 20:03:29 20:07:39 51° 70° (ENE) 20:11:58 435.000/436.395/437.385
XW-2D 20 Sep 20:04:52 20:06:45 13° 272° (W) 20:08:38 145.860 - 145.880
AAUSAT CUBESAT 2 20 Sep 20:07:11 20:11:12 49° 70° (ENE) 20:15:15 437.432
XW-2B 20 Sep 20:18:37 20:19:08 10° 274° (W) 20:19:40 145.730 - 145.750
STARS 20 Sep 20:20:30 20:24:31 36° 295° (WNW) 20:28:32 437.465
NO-84 20 Sep 20:25:14 20:28:22 84° 20° (NNE) 20:31:19 435.350 FM
XW-2A 20 Sep 20:25:31 20:28:55 65° 258° (WSW) 20:32:21 145.665 - 145.685
DELFI C3 20 Sep 20:34:39 20:36:08 12° 56° (NE) 20:37:38 145.870
HO-68 20 Sep 20:42:12 20:48:49 40° 264° (W) 20:55:30 435.675
Max Valier Satellite 20 Sep 20:46:33 20:47:31 11° 56° (NE) 20:48:29 145.860
PCSat 20 Sep 20:52:49 20:56:06 16° 358° (N) 20:59:23 145.827
AO-73 20 Sep 20:57:47 21:02:07 88° 72° (ENE) 21:06:37 145.935
ZACube-1 20 Sep 20:58:34 21:02:55 83° 259° (WSW) 21:07:24 437.345
Oscar 11 20 Sep 21:00:51 21:05:11 71° 73° (ENE) 21:09:33 .
STRAND 1 20 Sep 21:04:18 21:09:26 64° 102° (ESE) 21:14:33 437.568
SEEDS 20 Sep 21:10:50 21:14:08 22° 269° (W) 21:17:27 437.485
SO-50 20 Sep 21:18:16 21:21:31 19° 15° (NNE) 21:24:47 436.795
CUBEBUG 2 20 Sep 21:27:46 21:30:40 18° 271° (W) 21:33:39 437.445
Tancredo 1 20 Sep 21:35:35 21:37:01 13° 143° (SE) 21:38:27 437.200
BEESAT 3 20 Sep 21:37:29 21:41:17 41° 123° (ESE) 21:45:07 437.485
BEESAT 2 20 Sep 21:38:27 21:41:03 17° 114° (ESE) 21:43:40 435.950
AO-85 20 Sep 21:40:31 21:43:11 18° 115° (ESE) 21:45:52 145.980
UWE-3 20 Sep 21:41:08 21:44:26 21° 270° (W) 21:47:50 435.000/436.395/437.385
AAUSAT CUBESAT 2 20 Sep 21:43:47 21:46:56 20° 269° (W) 21:50:05 437.432
EO-88 20 Sep 21:51:55 21:55:16 34° 68° (ENE) 21:58:38 145.990 - 145.960
YUBILEINY 20 Sep 21:54:22 21:59:21 16° 43° (NE) 22:04:19 435.215
FO-29 20 Sep 22:01:09 22:05:50 30° 95° (E) 22:10:49 435.910
NO-84 20 Sep 22:03:10 22:05:21 19° 223° (SW) 22:07:28 435.350 FM
UNISAT 6 20 Sep 22:03:47 22:05:32 12° 85° (E) 22:07:16 437.425
DELFI C3 20 Sep 22:06:17 22:10:15 83° 76° (ENE) 22:14:13 145.870
Max Valier Satellite 20 Sep 22:16:58 22:20:41 83° 75° (ENE) 22:24:28 145.860
TIGRISAT 20 Sep 22:27:17 22:30:29 18° 89° (E) 22:33:43 435.000
AO-73 20 Sep 22:37:04 22:39:03 13° 275° (W) 22:41:03 145.935
PCSat 20 Sep 22:37:18 22:41:31 22° 24° (NNE) 22:45:43 145.827
ZACube-1 20 Sep 22:38:33 22:39:58 11° 276° (W) 22:41:24 437.345
Oscar 11 20 Sep 22:39:09 22:41:49 16° 272° (W) 22:44:30 .
ESTCUBE 1 20 Sep 22:40:06 22:43:21 20° 58° (ENE) 22:46:36 437.505/2401.250
STRAND 1 20 Sep 22:44:08 22:48:14 24° 302° (WNW) 22:52:19 437.568
nSIGHT-1 20 Sep 22:56:46 22:59:03 18° 143° (SE) 23:01:21 .
SO-50 20 Sep 22:58:38 23:03:02 45° 38° (NE) 23:07:28 436.795
LO-87 20 Sep 22:59:07 23:02:11 28° 67° (ENE) 23:05:17 145.935 - 145.965
Tancredo 1 20 Sep 23:08:28 23:11:08 52° 161° (SSE) 23:13:48 437.200
BEESAT 2 20 Sep 23:14:16 23:18:18 77° 315° (NW) 23:22:24 435.950
BEESAT 3 20 Sep 23:15:10 23:18:55 35° 323° (NW) 23:22:42 437.485
AO-85 20 Sep 23:19:13 23:23:06 67° 315° (NW) 23:27:07 145.980
VELOX 1 20 Sep 23:24:50 23:26:44 13° 53° (NE) 23:28:37 145.980
EO-88 20 Sep 23:26:01 23:29:00 23° 266° (W) 23:32:01 145.990 - 145.960
UNISAT 6 20 Sep 23:38:19 23:42:58 79° 101° (E) 23:47:41 437.425
DELFI C3 20 Sep 23:44:12 23:45:35 11° 274° (W) 23:46:57 145.870
FO-29 20 Sep 23:46:07 23:51:11 49° 293° (WNW) 23:56:38 435.910
ISS 20 Sep 23:46:29 23:49:30 34° 152° (SSE) 23:52:32 437.550
SPROUT 20 Sep 23:46:52 23:50:07 22° 61° (ENE) 23:53:22 437.525
YUBILEINY 20 Sep 23:50:12 23:58:43 53° 70° (ENE) 00:07:12 435.215
Max Valier Satellite 20 Sep 23:54:18 23:55:05 11° 274° (W) 23:55:52 145.860
PRISM 20 Sep 23:59:38 00:03:43 71° 103° (ESE) 00:07:46 437.425
TIGRISAT 21 Sep 00:03:01 00:07:38 69° 288° (WNW) 00:12:17 435.000
ESTCUBE 1 21 Sep 00:15:11 00:19:42 68° 257° (WSW) 00:24:15 437.505/2401.250
PCSat 21 Sep 00:20:34 00:25:59 62° 47° (NE) 00:31:21 145.827
AIST 2D 21 Sep 00:22:21 00:25:31 30° 96° (E) 00:28:39 435.315
NANOSAT C BR1 21 Sep 00:27:15 00:29:43 15° 88° (E) 00:32:11 145.865
nSIGHT-1 21 Sep 00:31:44 00:34:57 61° 163° (SSE) 00:38:11 .
LO-87 21 Sep 00:32:36 00:35:36 26° 265° (W) 00:38:38 145.935 - 145.965
SO-50 21 Sep 00:39:14 00:43:28 38° 238° (WSW) 00:47:44 436.795
DX 1 21 Sep 00:42:23 00:45:29 20° 58° (ENE) 00:48:35 434.975-435.025
Tancredo 1 21 Sep 00:42:55 00:45:38 87° 348° (NNW) 00:48:22 437.200
UKube-1 21 Sep 00:43:02 00:45:21 14° 54° (NE) 00:47:39 .
BEESAT 2 21 Sep 00:53:32 00:56:41 21° 335° (NNW) 00:59:50 435.950
BEESAT 3 21 Sep 00:55:13 00:57:35 15° 346° (NNW) 00:59:55 437.485
DUCHIFAT 1 21 Sep 00:56:45 01:00:17 25° 93° (E) 01:03:47 145.980
VELOX 1 21 Sep 00:58:03 01:02:26 74° 72° (ENE) 01:06:50 145.980
AO-85 21 Sep 01:01:20 01:04:14 19° 338° (NNW) 01:07:14 145.980
50 SAT 21 Sep 01:02:12 01:04:59 25° 66° (ENE) 01:07:48 437.505
POLYITAN 1 21 Sep 01:05:23 01:09:23 36° 97° (E) 01:13:21 437.675
EO-79 21 Sep 01:10:34 01:14:37 40° 98° (E) 01:18:40 145.935-145.965
UNISAT 6 21 Sep 01:16:04 01:19:10 18° 303° (WNW) 01:22:17 437.425
SPROUT 21 Sep 01:21:34 01:25:43 52° 260° (W) 01:29:54 437.525
ISS 21 Sep 01:22:29 01:25:47 85° 171° (S) 01:29:06 437.550
QB50P2 21 Sep 01:22:56 01:27:11 58° 101° (E) 01:31:24 145.880/145.840
FO-29 21 Sep 01:34:20 01:35:12 10° 314° (NW) 01:36:05 435.910
PRISM 21 Sep 01:35:59 01:38:32 16° 302° (WNW) 01:41:04 437.425
TIGRISAT 21 Sep 01:41:30 01:43:32 13° 307° (NW) 01:45:33 435.000
BUGSAT 1 21 Sep 01:44:39 01:47:59 22° 93° (E) 01:51:19 437.445
Oscar 19 21 Sep 01:45:44 01:48:28 14° 86° (E) 01:51:11 437.125/150
YUBILEINY 21 Sep 01:47:20 01:55:27 46° 273° (W) 02:03:35 435.215
AIST 2D 21 Sep 01:55:40 01:58:37 25° 294° (WNW) 02:01:33 435.315
M-CUBED/EXP-1 PRIME 21 Sep 01:57:27 02:00:20 25° 101° (E) 02:03:07 437.505
BEESAT 21 Sep 01:58:45 02:01:07 14° 51° (NE) 02:03:30 436.000
NANOSAT C BR1 21 Sep 02:01:40 02:05:56 73° 288° (WNW) 02:10:11 145.865
PCSat 21 Sep 02:04:26 02:09:04 29° 248° (WSW) 02:13:40 145.827
nSIGHT-1 21 Sep 02:07:59 02:11:15 88° 4° (N) 02:14:32 .
UKube-1 21 Sep 02:16:25 02:20:44 88° 74° (ENE) 02:25:05 .
DX 1 21 Sep 02:16:57 02:21:16 64° 257° (WSW) 02:25:36 434.975-435.025
Tancredo 1 21 Sep 02:17:29 02:20:07 47° 201° (SSW) 02:22:46 437.200
DUCHIFAT 1 21 Sep 02:32:04 02:36:07 42° 292° (WNW) 02:40:08 145.980
BEESAT 2 21 Sep 02:33:55 02:35:51 13° 359° (N) 02:37:47 435.950
BEESAT 3 21 Sep 02:34:33 02:36:41 14° 10° (N) 02:38:50 437.485
50 SAT 21 Sep 02:34:39 02:37:28 25° 264° (W) 02:40:18 437.505
VELOX 1 21 Sep 02:36:46 02:39:24 15° 272° (W) 02:42:02 145.980
POLYITAN 1 21 Sep 02:41:20 02:45:05 30° 296° (WNW) 02:48:49 437.675
AO-85 21 Sep 02:44:01 02:46:10 14° 4° (N) 02:48:21 145.980
Gurwin Techsat 1B 21 Sep 02:44:12 02:48:53 30° 94° (E) 02:53:32 435.225
EO-79 21 Sep 02:46:37 02:50:14 27° 297° (WNW) 02:53:50 145.935-145.965
MOZHAYETS 4 21 Sep 02:54:56 02:59:01 32° 64° (ENE) 03:03:09
ITUPSAT 1 21 Sep 02:55:08 02:59:27 35° 63° (ENE) 03:03:47 437.325
ISS 21 Sep 02:58:59 03:02:17 78° 191° (S) 03:05:35 437.550
QB50P2 21 Sep 02:59:27 03:02:36 20° 300° (WNW) 03:05:46 145.880/145.840
O/OREOS (USA 219) 21 Sep 03:00:19 03:03:05 16° 100° (E) 03:05:51 437.305
CUBESAT XI-V 21 Sep 03:14:58 03:17:36 15° 55° (NE) 03:20:16 437.345
BUGSAT 1 21 Sep 03:19:32 03:23:32 46° 291° (WNW) 03:27:34 437.445
Oscar 19 21 Sep 03:23:23 03:28:37 83° 105° (ESE) 03:33:47 437.125/150
M-CUBED/EXP-1 PRIME 21 Sep 03:31:48 03:34:50 28° 301° (WNW) 03:37:43 437.505
BEESAT 21 Sep 03:33:21 03:38:05 72° 72° (ENE) 03:42:53 436.000
NANOSAT C BR1 21 Sep 03:39:18 03:40:54 12° 306° (NW) 03:42:30 145.865
KKS-1 21 Sep 03:40:34 03:41:30 11° 50° (NE) 03:42:26 437.445
nSIGHT-1 21 Sep 03:44:20 03:47:31 49° 202° (SSW) 03:50:41 .
AO-7 21 Sep 03:50:41 03:57:04 24° 89° (E) 04:03:24 .
Tancredo 1 21 Sep 03:53:07 03:54:11 12° 219° (SW) 03:55:15 437.200
UKube-1 21 Sep 03:55:32 03:57:23 12° 273° (W) 03:59:15 .
BEESAT 3 21 Sep 04:11:52 04:15:27 29° 33° (NNE) 04:18:59 437.485
BEESAT 2 21 Sep 04:12:07 04:15:04 19° 22° (NNE) 04:18:01 435.950
ITAMSAT 1 21 Sep 04:22:04 04:26:20 25° 92° (E) 04:30:35 435.822/435.867
Gurwin Techsat 1B 21 Sep 04:23:56 04:29:03 49° 294° (WNW) 04:34:10 435.225
AO-85 21 Sep 04:24:31 04:27:58 24° 28° (NNE) 04:31:35 145.980
MOZHAYETS 4 21 Sep 04:31:46 04:36:06 39° 263° (W) 04:40:28
ITUPSAT 1 21 Sep 04:32:48 04:37:14 38° 263° (W) 04:41:44 437.325
ISS 21 Sep 04:35:37 04:38:29 28° 211° (SSW) 04:41:22 437.550
O/OREOS (USA 219) 21 Sep 04:37:23 04:41:54 76° 300° (WNW) 04:46:29 437.305
CUBESAT XI-V 21 Sep 04:49:34 04:54:17 83° 73° (ENE) 04:59:01 437.345
Oscar 19 21 Sep 05:03:40 05:07:20 20° 305° (NW) 05:10:59 437.125/150
KKS-1 21 Sep 05:12:50 05:17:10 59° 70° (ENE) 05:21:33 437.445
BEESAT 21 Sep 05:13:10 05:16:23 18° 271° (W) 05:19:39 436.000
nSIGHT-1 21 Sep 05:21:35 05:23:18 14° 220° (SW) 05:25:00 .
AO-7 21 Sep 05:42:38 05:51:00 87° 111° (ESE) 05:59:20 .
STARS 21 Sep 05:45:34 05:49:49 54° 69° (ENE) 05:54:05 437.465
DOVE 4 21 Sep 05:45:41 05:48:09 15° 89° (E) 05:50:38 437.250
BEESAT 3 21 Sep 05:49:19 05:53:15 54° 234° (SW) 05:57:06 437.485
BEESAT 2 21 Sep 05:49:31 05:53:34 62° 44° (NE) 05:57:35 435.950
RS-15 21 Sep 05:55:45 06:06:30 38° 107° (ESE) 06:17:12 29.354- 29.394
ITAMSAT 1 21 Sep 06:01:03 06:06:10 58° 292° (WNW) 06:11:16 435.822/435.867
AO-85 21 Sep 06:04:34 06:08:53 87° 47° (NE) 06:13:33 145.980
Gurwin Techsat 1B 21 Sep 06:06:15 06:07:50 11° 314° (NW) 06:09:26 435.225
O/OREOS (USA 219) 21 Sep 06:19:11 06:22:07 17° 322° (NW) 06:25:04 437.305
CUBESAT XI-V 21 Sep 06:29:33 06:32:16 15° 273° (W) 06:35:00 437.345
XW-2C 21 Sep 06:30:31 06:32:01 12° 87° (E) 06:33:31 145.795 - 145.815
LilacSat-2 21 Sep 06:38:37 06:40:58 15° 89° (E) 06:43:19 437.200
NUDT-PHONESAT 21 Sep 06:44:40 06:46:12 12° 87° (E) 06:47:43 437.300
STRAND 1 21 Sep 06:47:36 06:51:53 28° 60° (ENE) 06:56:12 437.568
KKS-1 21 Sep 06:50:55 06:54:06 19° 269° (W) 06:57:19 437.445
KAITUO 1B 21 Sep 07:07:25 07:10:21 21° 92° (E) 07:13:17 145.475/437.950
DOVE 4 21 Sep 07:22:10 07:26:19 68° 287° (WNW) 07:30:35 437.250
STARS 21 Sep 07:23:14 07:26:29 20° 268° (W) 07:29:45 437.465
BEESAT 2 21 Sep 07:27:53 07:30:58 21° 244° (WSW) 07:34:00 435.950
CUTE-I 21 Sep 07:28:32 07:33:32 39° 97° (E) 07:38:30 437.470
XW-2D 21 Sep 07:29:27 07:33:12 48° 99° (E) 07:36:53 145.860 - 145.880
CUTE 1.7 + AOD 2 21 Sep 07:35:55 07:38:18 14° 87° (E) 07:40:39 437.475
AO-7 21 Sep 07:36:01 07:43:00 32° 313° (NW) 07:49:57 .
CUBEBUG 2 21 Sep 07:37:29 07:37:51 10° 83° (E) 07:38:12 437.445
XW-2B 21 Sep 07:41:40 07:45:30 63° 102° (ESE) 07:49:16 145.730 - 145.750
ITAMSAT 1 21 Sep 07:42:24 07:44:38 13° 312° (NW) 07:46:51 435.822/435.867
XW-2F 21 Sep 07:44:00 07:47:48 64° 102° (ESE) 07:51:34 145.980 - 146.000
AO-85 21 Sep 07:45:59 07:48:49 17° 246° (WSW) 07:51:46 145.980
XW-2C 21 Sep 08:02:52 08:06:44 76° 286° (WNW) 08:10:32 145.795 - 145.815
HO-68 21 Sep 08:03:08 08:09:34 34° 94° (E) 08:15:57 435.675
RS-15 21 Sep 08:05:31 08:17:56 85° 314° (NW) 08:30:16 29.354- 29.394
LilacSat-2 21 Sep 08:11:48 08:15:37 58° 288° (WNW) 08:19:23 437.200
NUDT-PHONESAT 21 Sep 08:16:47 08:20:33 72° 286° (WNW) 08:24:16 437.300
FO-29 21 Sep 08:20:12 08:24:39 26° 59° (ENE) 08:28:54 435.910
STRAND 1 21 Sep 08:25:50 08:30:49 54° 259° (W) 08:35:51 437.568
KAITUO 1B 21 Sep 08:40:58 08:44:31 39° 291° (WNW) 08:48:01 145.475/437.950
AO-73 21 Sep 08:41:37 08:43:51 13° 86° (E) 08:46:04 145.935
ZACube-1 21 Sep 08:42:24 08:45:04 15° 87° (E) 08:47:44 437.345
SEEDS 21 Sep 08:47:50 08:51:53 44° 98° (E) 08:55:52 437.485
DOVE 4 21 Sep 09:02:25 09:03:18 11° 306° (NW) 09:04:10 437.250
XW-2D 21 Sep 09:04:16 09:07:05 20° 298° (WNW) 09:09:51 145.860 - 145.880
UNISAT 6 21 Sep 09:07:11 09:10:20 20° 58° (ENE) 09:13:32 437.425
CUTE-I 21 Sep 09:08:41 09:13:35 39° 297° (WNW) 09:18:30 437.470
CUTE 1.7 + AOD 2 21 Sep 09:10:23 09:14:40 74° 286° (WNW) 09:18:52 437.475
CUBEBUG 2 21 Sep 09:10:39 09:15:18 68° 102° (ESE) 09:20:01 437.445
XW-2A 21 Sep 09:14:21 09:17:47 59° 101° (ESE) 09:21:11 145.665 - 145.685
XW-2B 21 Sep 09:16:52 09:19:15 16° 300° (WNW) 09:21:37 145.730 - 145.750
AAUSAT CUBESAT 2 21 Sep 09:18:59 09:22:56 43° 98° (E) 09:26:51 437.432
XW-2F 21 Sep 09:19:09 09:21:29 16° 301° (WNW) 09:23:48 145.980 - 146.000
PRISM 21 Sep 09:20:37 09:22:58 15° 57° (ENE) 09:25:20 437.425
UWE-3 21 Sep 09:23:25 09:28:00 56° 100° (E) 09:32:37 435.000/436.395/437.385
AO-7 21 Sep 09:29:50 09:33:14 13° 339° (NNW) 09:36:38 .
TIGRISAT 21 Sep 09:30:57 09:34:39 28° 63° (ENE) 09:38:27 435.000
XW-2C 21 Sep 09:39:25 09:40:12 10° 305° (NW) 09:40:59 145.795 - 145.815
